Regional Weather Roundup
Issued by NWS State College, PA

Current Version | Previous Version | Text Only | Print | Product List | Glossary On
Versions: 1 2 3 4 5 6 7 8 9 10 11 12 13 14 15 16 17 18 19 20 21 22 23 24 25 26 27 28 29 30 31 32 33 34 35 36 37 38 39 40 41 42 43 44 45 46 47 48 49 50
957
ASUS41 KCTP 201110
RWRCTP

REGIONAL WEATHER ROUNDUP
NATIONAL WEATHER SERVICE STATE COLLEGE PA
700 AM EDT FRI OCT 20 2017

Note: "fair" indicates few or no clouds below 12,000 feet with no
significant weather and/or obstructions to visibility.

* = STATION THAT DOES NOT REPORT PRECIPITATION /E.G. RAIN...SNOW...ETC/
    THUNDER OR FOG.

PAZ002>004-007>009-013>016-020>023-029>032-201200-
WESTERN PENNSYLVANIA

CITY           SKY/WX    TMP DP  RH WIND       PRES   REMARKS
ERIE           FAIR      44  41  89 S3        30.25R
MEADVILLE      FAIR      49  48  97 W3        30.26R
FRANKLIN*      FAIR      46  45  96 SW3       30.26R
NEW CASTLE     FOG       43  43 100 CALM      30.27R VSB 1/4
BEAVER COUNTY  CLEAR     50  46  87 CALM      30.26
BUTLER*        FAIR      44  44 100 CALM      30.27R FOG
PITTSBURGH INT FAIR      48  46  93 CALM      30.26R
PITTSBURGH     FAIR      53  45  74 W5        30.25R
INDIANA*       CLEAR     45  43  93 CALM      30.28R
LATROBE        CLEAR     48  45  87 SW6       30.26R
WASHINGTON CO* FAIR      45  44  97 CALM      30.29R
$$

PAZ004>006-010>012-017>019-024>028-033>037-041-042-045-046-049>053-201200-
CENTRAL PENNSYLVANIA

CITY           SKY/WX    TMP DP  RH WIND       PRES   REMARKS
BRADFORD       FAIR      44  43  96 W3        30.24R
DUBOIS         FAIR      46  44  93 W6        30.23R FOG
CLEARFIELD     FAIR      45  44  97 CALM      30.24R
JOHNSTOWN      FAIR      50  45  83 W5        30.25R
ALTOONA        FAIR      54  46  74 CALM      30.24R
STATE COLLEGE  CLEAR     48  45  87 W3        30.22R
WILLIAMSPORT   FAIR      45  44  97 VRB3      30.19R
SELINSGROVE    FAIR      43  43 100 CALM      30.20R
FT INDIANTOWN  MOCLDY    45  45 100 CALM      30.18R
CAPITAL CITY   FAIR      51  45  79 CALM      30.19R
HARRISBURG     FAIR      50  49  96 CALM      30.18R
YORK           FAIR      44  44 100 CALM      30.19R
$$

PAZ038>040-043-044-047-048-054-055-060>062-067>071-201200-
EASTERN PENNSYLVANIA

CITY           SKY/WX    TMP DP  RH WIND       PRES   REMARKS
SCRANTON       FAIR      52  44  74 CALM      30.17R
MOUNT POCONO   FAIR      48  41  76 NW6       30.15R
ALLENTOWN      FAIR      48  43  82 SW6       30.16R
QUAKERTOWN*    FAIR      54  46  76 NW5       30.17R
READING        FAIR      50  48  93 CALM      30.17R
LANCASTER      FAIR      49  46  90 W5        30.19R
COATESVILLE    FAIR      50  46  87 W6        30.20R
POTTSTOWN      FAIR      49  46  90 CALM      30.18R
BLUE BELL      FAIR      45  45 100 CALM      30.18S
DOYLESTOWN     FAIR      49  46  90 VRB3      30.15R
WILLOW GROVE   NOT AVBL
NORTH PHILA    FAIR      57  46  66 W6        30.17R
PHILADELPHIA   FAIR      59  46  62 NW8       30.17R
$$




USA.gov is the U.S. government's official web portal to all federal, state and local government web resources and services.